This is the latest recevied weather packets stored in our database for station/object N3UJJ-1. If no packets are shown the sender has not sent any weather packets the latest 10 day(s).
| Time | Temp. | Humidity | Pressure | Rain* | Wind** | Luminosity | Snow |
|---|---|---|---|---|---|---|---|
| 1778099480 | 20.56° C | 82% | 1007 hPa | 0 mm | - | - | - |
| 1778098580 | 20.56° C | 83% | 1007.2 hPa | 0 mm | - | - | - |
| 1778097680 | 20.56° C | 83% | 1007.1 hPa | 0 mm | - | - | - |
| 1778096780 | 20° C | 83% | 1007 hPa | 0 mm | - | - | - |
| 1778095880 | 20° C | 83% | 1007.3 hPa | 0 mm | - | - | - |
| 1778094979 | 20° C | 83% | 1007.6 hPa | 0 mm | - | - | - |
| 1778094079 | 20.56° C | 83% | 1007.8 hPa | 0 mm | - | - | - |
| 1778093179 | 20.56° C | 82% | 1007.7 hPa | 0 mm | - | - | - |
| 1778092279 | 20° C | 83% | 1007.8 hPa | 0 mm | - | - | - |
| 1778091378 | 20° C | 83% | 1008.2 hPa | 0 mm | - | - | - |
| 1778090478 | 19.44° C | 84% | 1008.4 hPa | 0 mm | - | - | - |
| 1778089578 | 19.44° C | 86% | 1008.4 hPa | 0 mm | - | - | - |
| 1778088678 | 18.89° C | 88% | 1008.3 hPa | 0 mm | - | - | - |
| 1778087778 | 18.33° C | 89% | 1008.6 hPa | 0 mm | - | - | - |
| 1778086878 | 17.78° C | 91% | 1008.6 hPa | 0.25 mm | - | - | - |
| 1778085978 | 17.78° C | 93% | 1008.7 hPa | 0.25 mm | - | - | - |
| 1778085077 | 17.22° C | 94% | 1008.8 hPa | 0.76 mm | - | - | - |
| 1778084177 | 17.22° C | 95% | 1008.8 hPa | 0.76 mm | - | - | - |
| 1778083277 | 16.67° C | 95% | 1009.2 hPa | 0.76 mm | - | - | - |
| 1778082377 | 16.67° C | 94% | 1009.1 hPa | 0.76 mm | - | - | - |
| 1778081476 | 16.67° C | 94% | 1009.3 hPa | 1.27 mm | - | - | - |
| 1778080576 | 16.67° C | 94% | 1009.8 hPa | 1.27 mm | - | - | - |
| 1778079676 | 16.11° C | 94% | 1009.9 hPa | 1.27 mm | - | - | - |
| 1778078776 | 16.11° C | 93% | 1010 hPa | 1.27 mm | - | - | - |
| 1778077876 | 16.67° C | 91% | 1009.9 hPa | 0.25 mm | - | - | - |
* Rain latest hour (hover to see other rain measurements)
** Current wind speed in m/s (hover to see current wind gust speed)